Regional Weather Roundup
Issued by NWS

Home | Current Version | Previous Version | Graphics & Text | Print | Product List | Glossary On
Versions: 1 2 3 4 5 6 7 8 9 10 11 12 13 14 15 16 17 18 19 20 21 22 23 24 25 26 27 28 29 30 31 32 33 34 35 36 37 38 39 40 41 42 43 44 45 46 47 48 49 50
000
ASUS43 KLOT 290600
RWRIL

ILLINOIS REGIONAL WEATHER ROUNDUP
NATIONAL WEATHER SERVICE CHICAGO/ROMEOVILLE IL
1200 AM CST THU JAN 29 2015

NOTE: "FAIR" INDICATES FEW OR NO CLOUDS BELOW 12,000 FEET WITH NO
SIGNIFICANT WEATHER AND/OR OBSTRUCTIONS TO VISIBILITY.

* THESE STATIONS ARE NOT UNDER NWS QUALITY CONTROL. THEY ALSO MAY NOT
  REPORT WEATHER SUCH AS PRECIPITATION OR FOG.

ILZ001-002-007-009-015-016-024-290700-
NORTHWEST ILLINOIS

CITY           SKY/WX    TMP DP  RH WIND       PRES   REMARKS
MOLINE         PTCLDY    39  31  72 S9        29.68F WCI  33
6HR MIN TEMP:  35; 6HR MAX TEMP:  40;

STERLING*      PTCLDY    36  30  80 S6        29.73F WCI  31
$$

ILZ003-004-008-010-011-017-018-290700-
NORTH CENTRAL ILLINOIS

CITY           SKY/WX    TMP DP  RH WIND       PRES   REMARKS
ROCKFORD       CLOUDY    34  27  75 S15       29.77F WCI  24
6HR MIN TEMP:  32; 6HR MAX TEMP:  34;

$$

ILZ005-006-012>014-019>023-290700-
NORTHEAST ILLINOIS

CITY           SKY/WX    TMP DP  RH WIND       PRES   REMARKS
CHICAGO-OHARE  CLOUDY    33  26  75 S17       29.80F WCI  22
6HR MIN TEMP:  31; 6HR MAX TEMP:  34; 6HR PCP:  0.01;

CHICAGO-MIDWAY CLOUDY    36  25  64 S15       29.82F WCI  27
6HR MIN TEMP:  34; 6HR MAX TEMP:  36; 6HR PCP:  0.03;

AURORA         CLOUDY    35  26  69 SE16      29.79F WCI  25
6HR MIN TEMP:  32; 6HR MAX TEMP:  35; 6HR PCP:  0.01;

WAUKEGAN       CLOUDY    34  22  61 SE14      29.80F WCI  25
6HR MIN TEMP:  31; 6HR MAX TEMP:  34; 6HR PCP: TRACE;

DUPAGE AIRPORT CLOUDY    34  26  72 S14G25    29.78F WCI  25
6HR MIN TEMP:  32; 6HR MAX TEMP:  34; 6HR PCP:  0.01;

WHEELING       CLOUDY    34  24  67 S15       29.82F WCI  24
6HR MIN TEMP:  32; 6HR MAX TEMP:  34; 6HR PCP: TRACE;

NORTHERLY ISL    N/A     33  25  72 SE9         N/A  WCI  25
$$

LMZ740>746-290700-
SOUTHERN LAKE MICHIGAN

STATION/POSITION SKY/WX   TEMP    WIND        PRES    VSBY  WAVE
                          AIR SEA DIR/SP/G                  HT/PER
                          (F)     (DEG/KT/KT) (MB)    (MI)  (FT/S)
WAUKEGAN HARBOR            34     170/ 19/ 22   N/A
HARRISON CRIB              34     170/ 23/ 28   N/A
BURNHAM HARBOR             33     160/  8/ 18   N/A
CALUMET HARBOR             35     160/ 13/ 19   N/A
MICHIGAN CITY              33     140/ 17/ 24   N/A
$$

ILZ025>027-034>036-040-047-049-050-058-095>099-290700-
WEST-CENTRAL ILLINOIS

CITY           SKY/WX    TMP DP  RH WIND       PRES   REMARKS
QUINCY         CLOUDY    46  35  65 SW16      29.70F
$$

ILZ028>032-037-038-041>044-048-051>054-059>061-290700-
CENTRAL ILLINOIS

CITY           SKY/WX    TMP DP  RH WIND       PRES   REMARKS
DECATUR        MOCLDY    39  29  67 S21G29    29.82F WCI  29
PEORIA         MOCLDY    39  32  76 S18       29.74F WCI  30
6HR MIN TEMP:  38; 6HR MAX TEMP:  39; 6HR PCP: TRACE;

SPRINGFIELD    MOCLDY    41  32  70 S20       29.78F
6HR MIN TEMP:  39; 6HR MAX TEMP:  42; 6HR PCP:  0.01;

TAYLORVILLE    NOT AVBL
$$

ILZ033-039-045-046-055>057-062-063-290700-
EAST-CENTRAL ILLINOIS

CITY           SKY/WX    TMP DP  RH WIND       PRES   REMARKS
CHAMPAIGN      CLOUDY    37  27  67 S16       29.85F WCI  28
MATTOON        CLOUDY    37  27  67 S17       29.86F WCI  27
$$

ILZ079-100>102-290700-
SOUTHWEST ILLINOIS

CITY           SKY/WX    TMP DP  RH WIND       PRES   REMARKS
BELLEVILLE     MOCLDY    44  35  71 VRB6      29.83F
CAHOKIA*       MOCLDY    51  37  58 S10       29.82F
$$

ILZ064>066-069>071-074>076-080>082-084>086-088>090-092>094-290700-
SOUTH-CENTRAL ILLINOIS

CITY           SKY/WX    TMP DP  RH WIND       PRES   REMARKS
CARBONDALE     CLOUDY    48  31  51 S21G29    29.92F
6HR MIN TEMP:  40; 6HR MAX TEMP:  48; 6HR PCP: TRACE;

MT. VERNON     MOCLDY    45  34  65 S12       29.91F
$$

ILZ067-068-072-073-078-083-087-091-290700-
SOUTHEAST ILLINOIS

CITY           SKY/WX    TMP DP  RH WIND       PRES   REMARKS
LAWRENCEVILLE  MOCLDY    39  27  62 S13       29.97F WCI  31
$$

ABBREVIATIONS USED IN REMARKS
   TC - TEMPERATURE IN CELSIUS
  WCI - WIND CHILL INDEX
   HX - HEAT INDEX
  VSB - VISIBILITY
$$



USA.gov is the U.S. government's official web portal to all federal, state and local government web resources and services.